This is the latest recevied weather packets stored in our database for station/object XE2RCS-1. If no packets are shown the sender has not sent any weather packets the latest 10 day(s).
| Time | Temp. | Humidity | Pressure | Rain* | Wind** | Luminosity | Snow |
|---|---|---|---|---|---|---|---|
| 1777517353 | 26.11° C | 75% | 1012 hPa | 0 mm | - | - | - |
| 1777516752 | 26.11° C | 75% | 1012 hPa | 0 mm | - | - | - |
| 1777516152 | 26.11° C | 74% | 1010 hPa | 0 mm | - | - | - |
| 1777515551 | 26.11° C | 73% | 1010 hPa | 0 mm | - | - | - |
| 1777514950 | 26.11° C | 69% | 1010 hPa | 0 mm | - | - | - |
| 1777514350 | 26.11° C | 58% | 1010 hPa | 0 mm | - | - | - |
| 1777513749 | 26.67° C | 59% | 1010 hPa | 0 mm | - | - | - |
| 1777513149 | 26.11° C | 70% | 1010 hPa | 0 mm | - | - | - |
| 1777512548 | 27.22° C | 62% | 1009 hPa | 0 mm | - | - | - |
| 1777511948 | 27.22° C | 61% | 1009 hPa | 0 mm | - | - | - |
| 1777511347 | 27.78° C | 57% | 1009 hPa | 0 mm | - | - | - |
| 1777510746 | 27.78° C | 50% | 1009 hPa | 0 mm | - | - | - |
| 1777510146 | 27.78° C | 50% | 1009 hPa | 0 mm | - | - | - |
| 1777509545 | 28.33° C | 57% | 1009 hPa | 0 mm | - | - | - |
| 1777508944 | 28.33° C | 62% | 1008 hPa | 0 mm | - | - | - |
| 1777508344 | 28.33° C | 61% | 1008 hPa | 0 mm | - | - | - |
| 1777507743 | 28.89° C | 57% | 1008 hPa | 0 mm | - | - | - |
| 1777507142 | 28.33° C | 46% | 1008 hPa | 0 mm | - | - | - |
| 1777506542 | 28.33° C | 46% | 1008 hPa | 0 mm | - | - | - |
| 1777505941 | 28.89° C | 45% | 1008 hPa | 0 mm | - | - | - |
| 1777505341 | 30° C | 45% | 1007 hPa | 0 mm | - | - | - |
| 1777504740 | 30° C | 44% | 1007 hPa | 0 mm | - | - | - |
| 1777504139 | 30° C | 43% | 1007 hPa | 0 mm | - | - | - |
| 1777503539 | 30° C | 39% | 1007 hPa | 0 mm | - | - | - |
| 1777502938 | 31.67° C | 37% | 1007 hPa | 0 mm | - | - | - |
* Rain latest hour (hover to see other rain measurements)
** Current wind speed in m/s (hover to see current wind gust speed)